| time (UTC) | temp F | wind direction | speed knots | gust knots | rain 1hr in | rain 24hr in | rain mn in | humidity % | barometer mb |
| 20260504194518 | 63 | 44 | 1.7 | 7.0 | 0.00 | 0.02 | 0.02 | 46 | 1001.7 |
| 20260504193021 | 62 | 20 | 1.7 | 6.1 | 0.00 | 0.02 | 0.02 | 50 | 1001.9 |
| 20260504191525 | 61 | 37 | 1.7 | 8.7 | 0.00 | 0.02 | 0.02 | 52 | 1002.1 |
| 20260504190028 | 61 | 182 | 1.7 | 7.0 | 0.00 | 0.02 | 0.02 | 53 | 1002.1 |
| 20260504184515 | 59 | 172 | 0.9 | 3.5 | 0.00 | 0.02 | 0.02 | 55 | 1002.2 |
| 20260504183021 | 59 | 35 | 1.7 | 6.1 | 0.00 | 0.02 | 0.02 | 56 | 1002.2 |
| 20260504181523 | 58 | 217 | 0.9 | 3.5 | 0.00 | 0.02 | 0.02 | 58 | 1002.4 |
| 20260504180026 | 56 | 221 | 0.9 | 6.1 | 0.00 | 0.02 | 0.02 | 64 | 1002.5 |
| 20260504174526 | 54 | 170 | 0.9 | 7.0 | 0.00 | 0.02 | 0.02 | 64 | 1002.7 |
| 20260504173023 | 52 | 219 | 0.9 | 4.3 | 0.00 | 0.02 | 0.02 | 69 | 1002.6 |
| 20260504171523 | 51 | 208 | 1.7 | 7.8 | 0.00 | 0.02 | 0.02 | 71 | 1002.6 |
| 20260504081528 | 29 | 227 | 0.0 | 0.9 | 0.00 | 0.01 | 0.00 | 88 | 1003.6 |
| 20260504050024 | 30 | 221 | 0.0 | 0.0 | 0.00 | 0.01 | 0.00 | 85 | 1003.5 |
| 20260504044521 | 30 | 221 | 0.0 | 0.9 | 0.00 | 0.01 | 0.00 | 85 | 1003.7 |
| 20260504043018 | 30 | 271 | 0.0 | 0.0 | 0.00 | 0.01 | 0.00 | 84 | 1003.7 |
| 20260504041515 | 30 | 271 | 0.0 | 0.0 | 0.00 | 0.01 | 0.00 | 84 | 1003.6 |
| 20260504040020 | 31 | 271 | 0.0 | 0.0 | 0.00 | 0.01 | 0.00 | 82 | 1003.4 |
| 20260504034536 | 32 | 271 | 0.0 | 0.9 | 0.00 | 0.01 | 0.01 | 81 | 1003.4 |
| 20260504033037 | 32 | 271 | 0.0 | 0.9 | 0.00 | 0.01 | 0.01 | 81 | 1003.4 |
| 20260504031514 | 32 | 271 | 0.0 | 0.9 | 0.00 | 0.01 | 0.01 | 80 | 1003.5 |
| 20260504030017 | 32 | 271 | 0.0 | 0.9 | 0.00 | 0.01 | 0.01 | 80 | 1003.4 |
| 20260504024522 | 33 | 271 | 0.0 | 0.9 | 0.00 | 0.01 | 0.01 | 80 | 1003.4 |
| 20260504023026 | 33 | 271 | 0.0 | 0.0 | 0.00 | 0.01 | 0.01 | 80 | 1003.4 |
| 20260504021533 | 33 | 271 | 0.0 | 0.0 | 0.00 | 0.01 | 0.01 | 79 | 1003.5 |
| 20260504020016 | 33 | 271 | 0.0 | 0.9 | 0.00 | 0.01 | 0.01 | 79 | 1003.4 |
| 20260504014520 | 33 | 6 | 0.0 | 0.9 | 0.00 | 0.01 | 0.01 | 77 | 1003.5 |
| 20260504013033 | 34 | 6 | 0.0 | 0.9 | 0.00 | 0.01 | 0.01 | 77 | 1003.5 |
| 20260504011528 | 35 | 6 | 0.0 | 0.0 | 0.00 | 0.01 | 0.01 | 76 | 1003.3 |
| 20260504010033 | 35 | 6 | 0.0 | 0.9 | 0.00 | 0.01 | 0.01 | 74 | 1003.2 |
| 20260504004516 | 36 | 8 | 0.0 | 0.0 | 0.00 | 0.01 | 0.01 | 71 | 1003.1 |
| 20260504003020 | 38 | 8 | 0.0 | 0.9 | 0.00 | 0.01 | 0.01 | 69 | 1003.1 |
| 20260504001525 | 39 | 8 | 0.0 | 0.9 | 0.00 | 0.01 | 0.01 | 65 | 1002.9 |
| 20260504000027 | 40 | 8 | 0.0 | 0.9 | 0.00 | 0.01 | 0.01 | 60 | 1002.8 |
| 20260503234527 | 41 | 8 | 0.0 | 0.9 | 0.00 | 0.01 | 0.01 | 60 | 1002.7 |
| 20260503233018 | 42 | 359 | 0.9 | 5.2 | 0.00 | 0.01 | 0.01 | 56 | 1002.6 |
| 20260503231520 | 42 | 186 | 0.0 | 3.5 | 0.00 | 0.01 | 0.01 | 56 | 1002.5 |
| 20260503230026 | 43 | 233 | 0.0 | 5.2 | 0.00 | 0.01 | 0.01 | 54 | 1002.6 |
| 20260503224527 | 43 | 121 | 1.7 | 5.2 | 0.00 | 0.01 | 0.01 | 53 | 1002.5 |
| 20260503223029 | 43 | 259 | 0.0 | 5.2 | 0.00 | 0.01 | 0.01 | 53 | 1002.4 |
| 20260503221529 | 44 | 219 | 1.7 | 7.0 | 0.00 | 0.01 | 0.01 | 53 | 1002.4 |
| 20260503220022 | 44 | 341 | 0.9 | 6.1 | 0.00 | 0.01 | 0.01 | 51 | 1002.2 |
| 20260503214526 | 45 | 275 | 1.7 | 7.0 | 0.00 | 0.01 | 0.01 | 50 | 1002.2 |
| 20260503213032 | 45 | 348 | 1.7 | 4.3 | 0.00 | 0.01 | 0.01 | 48 | 1002.2 |
| 20260503211529 | 45 | 191 | 2.6 | 6.1 | 0.00 | 0.01 | 0.01 | 48 | 1002.2 |
| 20260503210029 | 44 | 21 | 2.6 | 7.8 | 0.00 | 0.01 | 0.01 | 49 | 1002.2 |
| 20260503204523 | 45 | 333 | 0.9 | 3.5 | 0.00 | 0.01 | 0.01 | 48 | 1001.9 |
| 20260503203004 | 45 | 333 | 1.7 | 4.3 | 0.00 | 0.01 | 0.01 | 49 | 1002.0 |
| 20260503201525 | 46 | 145 | 2.6 | 6.1 | 0.00 | 0.01 | 0.01 | 47 | 1001.9 |
| 20260503200019 | 46 | 84 | 0.9 | 4.3 | 0.00 | 0.01 | 0.01 | 48 | 1001.9 |